TF3KC Weather Reports


Display with metric or nautical units.
time (UTC)temp
F
wind
direction
speed
MPH
gust
MPH
rain 1hr
in
rain 24hr
in
rain mn
in
humidity
%
barometer
mb
20260502233144 33 285 20.0 25.0 0.00 0.00 0.00 94 1011.8
20260502231543 33 286 20.0 26.0 0.00 0.00 0.00 93 1012.1
20260502230039 33 285 15.0 21.0 0.00 0.00 0.00 93 1012.5
20260502224538 33 285 17.0 23.0 0.00 0.00 0.00 91 1012.3
20260502223137 33 293 18.0 22.0 0.00 0.00 0.00 92 1012.5
20260502221540 33 295 14.0 19.0 0.00 0.00 0.00 93 1012.7
20260502220045 33 280 14.0 19.0 0.00 0.00 0.00 93 1012.9
20260502214535 33 286 12.0 26.0 0.00 0.00 0.00 93 1012.9
20260502213133 33 264 19.0 24.0 0.00 0.00 0.00 92 1012.8
20260502211532 33 288 21.0 30.0 0.00 0.00 0.00 92 1013.2
20260502210031 33 276 14.0 23.0 0.00 0.00 0.00 94 1013.3
20260502204530 34 269 15.0 25.0 0.00 0.00 0.00 89 1013.2
20260502203130 34 284 14.0 19.0 0.00 0.00 0.00 87 1013.3
20260502201537 34 288 17.0 21.0 0.00 0.00 0.00 86 1013.4
20260502200027 34 272 15.0 22.0 0.00 0.00 0.00 84 1013.7
20260502194536 34 275 14.0 22.0 0.00 0.00 0.00 84 1013.9
20260502193125 35 264 15.0 21.0 0.00 0.00 0.00 77 1014.1
20260502191533 34 282 17.0 25.0 0.00 0.00 0.00 83 1014.2
20260502190023 35 281 18.0 27.0 0.00 0.00 0.00 86 1014.4
20260502184532 34 269 18.0 24.0 0.00 0.00 0.00 91 1014.6
20260502183123 34 296 16.0 25.0 0.00 0.00 0.00 87 1014.6
20260502181518 34 266 16.0 22.0 0.00 0.00 0.00 85 1014.7
20260502163112 33 266 12.0 18.0 0.00 0.00 0.00 85 1015.8
20260502161509 32 272 17.0 25.0 0.00 0.00 0.00 86 1016.2
20260502151608 32 268 14.0 22.0 0.00 0.00 0.00 85 1017.2
20260502123038 31 267 9.0 15.0 0.00 0.00 0.00 70 1018.8
20260502121539 31 267 8.0 12.0 0.00 0.00 0.00 68 1018.9
20260502114539 30 259 6.0 11.0 0.00 0.00 0.00 70 1019.1
20260502113034 30 266 4.0 9.0 0.00 0.00 0.00 71 1019.4
20260502111533 29 274 3.0 7.0 0.00 0.00 0.00 71 1019.4
20260502110034 29 250 5.0 9.0 0.00 0.00 0.00 68 1019.6
20260502104530 29 288 5.0 8.0 0.00 0.00 0.00 68 1019.6
20260502103029 30 238 2.0 6.0 0.00 0.00 0.00 68 1019.8
20260502101528 30 153 2.0 4.0 0.00 0.00 0.00 70 1019.9
20260502091522 28 141 0.0 3.0 0.00 0.00 0.00 72 1020.1
20260502071509 23 141 0.0 3.0 0.00 0.00 0.00 82 1020.4
20260502070009 22 141 0.0 1.0 0.00 0.00 0.00 84 1020.4
20260502064514 21 141 2.0 3.0 0.00 0.00 0.00 85 1020.5
20260502063006 21 141 3.0 5.0 0.00 0.00 0.00 86 1020.5
20260502061502 20 141 0.0 3.0 0.00 0.00 0.00 87 1020.5
20260502060001 20 141 0.0 1.0 0.00 0.00 0.00 88 1020.6
20260502054601 20 141 1.0 5.0 0.00 0.00 0.00 88 1020.5
20260502053104 19 141 1.0 5.0 0.00 0.00 0.00 90 1020.6
20260502051602 19 141 0.0 0.0 0.00 0.00 0.00 91 1020.6
20260502050057 19 141 0.0 1.0 0.00 0.00 0.00 89 1020.4
20260502044557 19 141 0.0 2.0 0.00 0.00 0.00 90 1020.4
20260502043104 19 141 0.0 2.0 0.00 0.00 0.00 91 1020.5
20260502041553 20 141 1.0 3.0 0.00 0.00 0.00 90 1020.5
20260502040051 19 141 0.0 3.0 0.00 0.00 0.00 91 1020.5
20260502034550 19 141 0.0 1.0 0.00 0.00 0.00 91 1020.5
20260502033048 20 141 0.0 2.0 0.00 0.00 0.00 91 1020.5
20260502031546 19 141 0.0 2.0 0.00 0.00 0.00 90 1020.5
20260502030044 19 141 0.0 2.0 0.00 0.00 0.00 88 1020.4
20260502024543 20 141 2.0 5.0 0.00 0.00 0.00 88 1020.4
20260502023040 21 141 1.0 5.0 0.00 0.00 0.00 89 1020.3
20260502021540 21 141 2.0 3.0 0.00 0.00 0.00 90 1020.3
20260502020042 20 141 0.0 4.0 0.00 0.00 0.00 88 1020.5
20260502014549 21 153 2.0 6.0 0.00 0.00 0.00 88 1020.5
20260502013031 21 214 2.0 7.0 0.00 0.00 0.00 86 1020.4
20260502011533 22 347 3.0 5.0 0.00 0.00 0.00 86 1020.2
20260502010027 22 139 0.0 5.0 0.00 0.00 0.00 87 1020.3
20260502004524 22 205 3.0 6.0 0.00 0.00 0.00 85 1020.4
20260502003020 22 91 0.0 2.0 0.00 0.00 0.00 83 1020.4
20260502001521 23 91 0.0 0.0 0.00 0.00 0.00 81 1020.4
20260502000036 23 91 2.0 3.0 0.00 0.00 0.00 82 1020.3
20260501234514 23 92 1.0 7.0 0.00 0.00 0.00 81 1020.1